Chelan, Washington, United States (98816)
Lat: 47.84N, Lon: 120.02W
Wx Zone: WAZ041
Local Info
Past Weather Observations for Today

NOTE: This archive is for the closest National Weather Service station to Chelan. Information may differ from the station used for current weather conditions.

Click here for Long-term Archive

Time Weather Temperature Dewpoint Humidity Pressure Winds Precip Visibility
19:55
Clear
41°F / 5°C 30°F / -1°C 66% 30.15 in
(1021 mb)
NW 16.1 mph
(NW 26 kph)
- 10SM
18:55
Clear
45°F / 7°C 30°F / -1°C 57% 30.12 in
(1020 mb)
NNW 15 mph
(NNW 24 kph)
- 10SM
17:55
Clear
41°F / 5°C 30°F / -1°C 66% 30.09 in
(1019 mb)
NW 16.1 mph
(NW 26 kph)
- 10SM
16:55
Clear
43°F / 6°C 32°F / 0°C 66% 30.06 in
(1018 mb)
WNW 15 mph
(WNW 24 kph)
- 10SM
15:55
Clear
41°F / 5°C 34°F / 1°C 76% 30.09 in
(1019 mb)
N 8.1 mph
(N 13 kph)
- 10SM
14:55
Partly Cloudy
45°F / 7°C 36°F / 2°C 71% 30.09 in
(1019 mb)
NW 8.1 mph
(NW 13 kph)
0.01 in
(0.25 mm)
10SM
13:55
Overcast
Light Rain
43°F / 6°C 37°F / 3°C 81% 30.06 in
(1018 mb)
WNW 8.1 mph
(WNW 13 kph)
0.06 in
(1.52 mm)
5SM
13:47
Overcast
Rain
45°F / 7°C 36°F / 2°C 71% 30.06 in
(1018 mb)
NW 18.4 mph
(NW 30 kph)
0.06 in
(1.52 mm)
3SM
12:55
Overcast
Light Rain
46°F / 8°C 36°F / 2°C 66% 30.04 in
(1017 mb)
N 5.8 mph
(N 9 kph)
0.00 in
(0.00 mm)
10SM
11:55
Overcast
Light Rain
41°F / 5°C 36°F / 2°C 81% 30.04 in
(1017 mb)
W 4.6 mph
(W 7 kph)
0.00 in
(0.00 mm)
10SM
10:55
Mostly Cloudy
46°F / 8°C 32°F / 0°C 57% 30.01 in
(1016 mb)
E 12.7 mph
(E 20 kph)
- 10SM
09:55
Overcast
43°F / 6°C 30°F / -1°C 61% 30.04 in
(1017 mb)
ENE 12.7 mph
(ENE 20 kph)
- 10SM
08:55
Partly Cloudy
43°F / 6°C 28°F / -2°C 57% 30.04 in
(1017 mb)
Variable 3.5 mph
(Variable 6 kph)
- 10SM
07:55
Clear
39°F / 4°C 28°F / -2°C 65% 30.04 in
(1017 mb)
ENE 12.7 mph
(ENE 20 kph)
- 10SM
06:55
Partly Cloudy
36°F / 2°C 28°F / -2°C 75% 30.06 in
(1018 mb)
ENE 9.2 mph
(ENE 15 kph)
- 10SM
05:55
Clear
39°F / 4°C 28°F / -2°C 65% 30.06 in
(1018 mb)
ENE 6.9 mph
(ENE 11 kph)
- 10SM
04:55
Clear
36°F / 2°C 28°F / -2°C 75% 30.09 in
(1019 mb)
ENE 4.6 mph
(ENE 7 kph)
- 10SM
03:55
Clear
36°F / 2°C 28°F / -2°C 75% 30.06 in
(1018 mb)
E 5.8 mph
(E 9 kph)
- 10SM
02:55
Clear
36°F / 2°C 28°F / -2°C 75% 30.09 in
(1019 mb)
E 5.8 mph
(E 9 kph)
- 10SM
01:55
Clear
37°F / 3°C 28°F / -2°C 70% 30.06 in
(1018 mb)
E 5.8 mph
(E 9 kph)
- 10SM
00:55
Clear
39°F / 4°C 28°F / -2°C 65% 30.06 in
(1018 mb)
Variable 3.5 mph
(Variable 6 kph)
- 10SM
Time Weather Temperature Dewpoint Humidity Pressure Winds Precip Visibility


Weather for websites

WeatherForYou.com, LLC is not responsible for any damages or problems caused by this service. Current weather conditions are obtained from the closest station including government and personal stations which may have varying degrees of accuracy. Weather forecasts are derived from the NOAA NDFD. Like all things, this site belongs to Jesus Christ... He just trusts me to maintain it. If you have any questions or comments email webmaster@weatherforyou.com

Copyright © 2014, WeatherForYou.com LLC. All rights reserved.